Home > Weather > Bodø > Past weeks

Flag for Norway Weather for the Past 2 Weeks in Bodø, Norway

Now
52 °F

Partly sunny.


Feels Like: 48 °F
Forecast: 44 / 51 °F
Wind: 12 mph from Southeast

Location: Bodo Vi

Current Time: May 1, 2016 at 2:43:38 PM

Latest Report: May 1, 2016 at 1:50 PM


Visibility: N/A

Pressure: 30.18 "Hg

Humidity: 30%

Dew Point: 21 °F

Location of BodøLocation

Historic Weather in Bodø — Graph

°F

Bodø Temperature Yesterday

Maximum temperature yesterday: 52 °F (at 1:20 PM)
Minimum temperature yesterday: 45 °F (at 3:50 AM)
Average temperature yesterday: 49 °F

High & Low Weather Summary for the Past Weeks

 TemperatureHumidityPressure
High55 °F (Apr 29, 8:50 AM)100% (Apr 24, 7:50 AM)30.33 "Hg (Apr 24, 7:50 AM)
Low30 °F (Apr 24, 11:50 PM)28% (May 1, 10:20 AM)29.42 "Hg (Apr 18, 5:50 AM)
Average42 °F63%29.84 "Hg
* Reported Apr 16 12:20 PM — May 1 12:50 PM, Bodø, Weather by CustomWeather, © 2016

Note: Actual official high and low records may vary slightly from our data, if they occured in-between our weather recording intervals... More about our weather records

Advertising

Bodø Weather History for the Previous 24 Hours

Scroll right to see more
 ConditionsComfort  
Time TempWeatherWind HumidityBarometerVisibility
12:50 PM
Sun, May 1
52 °FPartly sunny.15 mph28%30.21 "HgN/A
12:20 PM52 °FPartly sunny.15 mph30%30.21 "HgN/A
11:50 AM52 °FPartly sunny.14 mph32%30.21 "HgN/A
11:20 AM52 °FPartly sunny.15 mph28%30.21 "HgN/A
10:50 AM52 °FPartly sunny.7 mph38%30.24 "HgN/A
10:20 AM52 °FPartly sunny.12 mph28%30.24 "HgN/A
9:50 AM50 °FPartly sunny.12 mph40%30.24 "HgN/A
8:50 AM50 °FSunny.13 mph47%30.24 "Hg10 mi
8:20 AM50 °FSunny.16 mph47%30.24 "Hg10 mi
7:50 AM50 °FSunny.17 mph47%30.24 "Hg10 mi
7:20 AM50 °FSunny.21 mph43%30.24 "Hg10 mi
6:20 AM48 °FSunny.18 mph50%30.24 "Hg10 mi
5:50 AM46 °FSunny.20 mph57%30.27 "Hg10 mi
4:50 AM46 °FClear.14 mph57%30.27 "Hg10 mi
3:50 AM48 °FClear.18 mph50%30.27 "Hg10 mi
2:50 AM48 °FClear.18 mph46%30.27 "Hg10 mi
12:50 AM48 °FClear.17 mph46%30.30 "Hg10 mi
11:50 PM
Sat, Apr 30
46 °FClear.16 mph62%30.30 "Hg10 mi
10:50 PM48 °FSunny.18 mph46%30.30 "Hg10 mi
10:20 PM50 °FSunny.21 mph43%30.30 "Hg10 mi
9:50 PM48 °FSunny.16 mph46%30.30 "Hg10 mi
9:20 PM50 °FSunny.14 mph43%30.30 "Hg10 mi
8:50 PM50 °FSunny.12 mph43%30.30 "Hg10 mi
8:20 PM52 °FSunny.15 mph38%30.30 "Hg10 mi
7:50 PM52 °FSunny.15 mph41%30.30 "Hg10 mi
7:20 PM52 °FSunny.15 mph41%30.30 "Hg10 mi
6:50 PM52 °FSunny.15 mph41%30.30 "Hg10 mi
6:20 PM52 °FSunny.18 mph41%30.30 "Hg10 mi
5:50 PM52 °FSunny.17 mph41%30.30 "Hg10 mi
5:20 PM52 °FSunny.16 mph44%30.30 "Hg10 mi
4:50 PM52 °FSunny.16 mph41%30.30 "Hg10 mi
4:20 PM52 °FSunny.15 mph35%30.30 "Hg10 mi
3:50 PM52 °FSunny.18 mph41%30.30 "Hg10 mi
3:20 PM52 °FSunny.20 mph38%30.30 "Hg10 mi
2:50 PM52 °FSunny.17 mph41%30.30 "Hg10 mi
2:20 PM52 °FSunny.21 mph44%30.30 "Hg10 mi
Weather by CustomWeather, © 2016

See weather overviewHow to use our weather pages